Time,TemperatureF,DewpointF,PressureIn,WindDirection,WindDirectionDegrees,WindSpeedMPH,WindSpeedGustMPH,Humidity,HourlyPrecipIn,Conditions,Clouds,dailyrainin,SolarRadiationWatts/m^2,SoftwareType,DateUTC
2013-09-06 00:02:00,71.1,66.9,30.02,NE,49,0.0,2.0,87,0.00,,,0.00,0.0,meteohub,2013-09-06 05:02:00,
2013-09-06 00:07:00,71.1,66.9,30.02,NNE,30,0.0,2.0,87,0.00,,,0.00,0.0,meteohub,2013-09-06 05:07:00,
2013-09-06 00:12:00,70.9,66.7,30.02,NNE,30,0.0,2.0,87,0.00,,,0.00,0.0,meteohub,2013-09-06 05:12:00,
2013-09-06 00:17:00,70.5,66.7,30.02,NNE,15,0.0,1.0,88,0.00,,,0.00,0.0,meteohub,2013-09-06 05:17:00,
2013-09-06 00:22:00,70.3,66.9,30.02,NE,53,1.0,2.0,89,0.00,,,0.00,0.0,meteohub,2013-09-06 05:22:00,
2013-09-06 00:28:00,70.2,66.7,30.02,NE,53,0.0,2.0,89,0.00,,,0.00,0.0,meteohub,2013-09-06 05:28:00,
2013-09-06 00:33:00,69.8,66.4,30.02,WNW,300,0.0,2.0,89,0.00,,,0.00,0.0,meteohub,2013-09-06 05:33:00,
2013-09-06 00:38:00,69.6,66.6,30.03,WNW,300,0.0,3.0,90,0.00,,,0.00,0.0,meteohub,2013-09-06 05:38:00,
2013-09-06 00:43:00,69.6,66.6,30.02,WNW,300,0.0,3.0,90,0.00,,,0.00,0.0,meteohub,2013-09-06 05:43:00,
2013-09-06 00:48:00,69.4,66.0,30.02,North,0,1.0,3.0,89,0.00,,,0.00,0.0,meteohub,2013-09-06 05:48:00,
2013-09-06 00:53:00,69.4,66.0,30.02,West,272,0.0,2.0,89,0.00,,,0.00,0.0,meteohub,2013-09-06 05:53:00,
2013-09-06 00:58:00,69.4,66.0,30.02,North,350,0.0,2.0,89,0.00,,,0.00,0.0,meteohub,2013-09-06 05:58:00,
2013-09-06 01:03:00,69.6,65.8,30.02,WNW,303,0.0,2.0,88,0.00,,,0.00,0.0,meteohub,2013-09-06 06:03:00,
2013-09-06 01:08:00,69.8,66.0,30.02,NNE,17,0.0,3.0,88,0.00,,,0.00,0.0,meteohub,2013-09-06 06:08:00,
2013-09-06 01:13:00,69.8,66.0,30.02,North,355,0.0,5.0,88,0.00,,,0.00,0.0,meteohub,2013-09-06 06:13:00,
2013-09-06 01:18:00,69.6,65.8,30.02,North,0,0.0,5.0,88,0.00,,,0.00,0.0,meteohub,2013-09-06 06:18:00,
2013-09-06 01:23:00,69.4,65.7,30.02,North,355,0.0,5.0,88,0.00,,,0.00,0.0,meteohub,2013-09-06 06:23:00,
2013-09-06 01:28:00,69.3,65.5,30.02,North,0,0.0,3.0,88,0.00,,,0.00,0.0,meteohub,2013-09-06 06:28:00,
2013-09-06 01:33:00,69.3,65.5,30.02,NW,313,0.0,3.0,88,0.00,,,0.00,0.0,meteohub,2013-09-06 06:33:00,
2013-09-06 01:38:00,69.3,65.5,30.02,WNW,300,0.0,3.0,88,0.00,,,0.00,0.0,meteohub,2013-09-06 06:38:00,
2013-09-06 01:43:00,69.1,65.7,30.02,NW,306,0.0,3.0,89,0.00,,,0.00,0.0,meteohub,2013-09-06 06:43:00,
2013-09-06 01:48:00,68.9,65.5,30.02,West,271,0.0,2.0,89,0.00,,,0.00,0.0,meteohub,2013-09-06 06:48:00,
2013-09-06 01:53:00,68.9,65.1,30.02,West,275,0.0,2.0,88,0.00,,,0.00,0.0,meteohub,2013-09-06 06:53:00,
2013-09-06 01:58:00,68.9,65.1,30.01,NE,49,0.0,2.0,88,0.00,,,0.00,0.0,meteohub,2013-09-06 06:58:00,
2013-09-06 02:03:00,69.1,65.3,30.01,WNW,294,0.0,2.0,88,0.00,,,0.00,0.0,meteohub,2013-09-06 07:03:00,
2013-09-06 02:08:00,68.9,64.9,30.01,East,90,0.0,2.0,87,0.00,,,0.00,0.0,meteohub,2013-09-06 07:08:00,
2013-09-06 02:13:00,68.7,64.9,30.01,East,90,0.0,2.0,88,0.00,,,0.00,0.0,meteohub,2013-09-06 07:13:00,
2013-09-06 02:18:00,68.7,64.9,30.01,North,355,0.0,2.0,88,0.00,,,0.00,0.0,meteohub,2013-09-06 07:18:00,
2013-09-06 02:23:00,68.7,64.8,30.01,ENE,63,0.0,2.0,87,0.00,,,0.00,0.0,meteohub,2013-09-06 07:23:00,
2013-09-06 02:28:00,68.7,64.9,30.01,North,0,2.0,2.0,88,0.00,,,0.00,0.0,meteohub,2013-09-06 07:28:00,
2013-09-06 02:33:00,68.5,64.8,30.01,East,89,0.0,2.0,88,0.00,,,0.00,0.0,meteohub,2013-09-06 07:33:00,
2013-09-06 02:38:00,68.4,64.6,30.01,East,82,0.0,3.0,88,0.00,,,0.00,0.0,meteohub,2013-09-06 07:38:00,
2013-09-06 02:43:00,68.4,64.6,30.01,NNW,338,0.0,3.0,88,0.00,,,0.00,0.0,meteohub,2013-09-06 07:43:00,
2013-09-06 02:48:00,68.2,64.4,30.01,North,350,0.0,3.0,88,0.00,,,0.00,0.0,meteohub,2013-09-06 07:48:00,
2013-09-06 02:53:00,68.4,64.6,30.01,NW,312,0.0,1.0,88,0.00,,,0.00,0.0,meteohub,2013-09-06 07:53:00,
2013-09-06 02:58:00,68.4,64.6,30.01,NNE,23,0.0,4.0,88,0.00,,,0.00,0.0,meteohub,2013-09-06 07:58:00,
2013-09-06 03:03:00,68.2,64.4,30.00,NNW,343,0.0,4.0,88,0.00,,,0.00,0.0,meteohub,2013-09-06 08:03:00,
2013-09-06 03:08:00,68.2,64.4,30.00,NW,319,0.0,3.0,88,0.00,,,0.00,0.0,meteohub,2013-09-06 08:08:00,
2013-09-06 03:13:00,68.2,64.4,30.00,ENE,64,0.0,2.0,88,0.00,,,0.00,0.0,meteohub,2013-09-06 08:13:00,
2013-09-06 03:18:00,67.8,64.2,30.00,NNE,15,0.0,2.0,88,0.00,,,0.00,0.0,meteohub,2013-09-06 08:18:00,
2013-09-06 03:23:00,67.8,64.2,30.00,NNE,15,0.0,3.0,88,0.00,,,0.00,0.0,meteohub,2013-09-06 08:23:00,
2013-09-06 03:28:00,67.6,64.0,30.00,East,79,0.0,3.0,88,0.00,,,0.00,0.0,meteohub,2013-09-06 08:28:00,
2013-09-06 03:33:00,67.6,64.2,30.00,North,11,0.0,2.0,89,0.00,,,0.00,0.0,meteohub,2013-09-06 08:33:00,
2013-09-06 03:38:00,67.5,64.0,30.00,NW,321,0.0,2.0,89,0.00,,,0.00,0.0,meteohub,2013-09-06 08:38:00,
2013-09-06 03:43:00,67.5,64.0,30.00,NW,313,1.0,2.0,89,0.00,,,0.00,0.0,meteohub,2013-09-06 08:43:00,
2013-09-06 03:48:00,67.5,64.0,30.00,East,82,0.0,2.0,89,0.00,,,0.00,0.0,meteohub,2013-09-06 08:48:00,
2013-09-06 03:54:00,67.5,64.0,30.00,WNW,291,0.0,2.0,89,0.00,,,0.00,0.0,meteohub,2013-09-06 08:54:00,
2013-09-06 03:59:00,67.6,64.0,30.00,NE,44,0.0,3.0,88,0.00,,,0.00,0.0,meteohub,2013-09-06 08:59:00,
2013-09-06 04:04:00,67.8,64.2,30.00,NNE,19,0.0,3.0,88,0.00,,,0.00,0.0,meteohub,2013-09-06 09:04:00,
2013-09-06 04:09:00,67.8,64.2,30.00,NNE,18,0.0,3.0,88,0.00,,,0.00,0.0,meteohub,2013-09-06 09:09:00,
2013-09-06 04:14:00,68.2,64.2,29.99,ESE,115,0.0,3.0,87,0.00,,,0.00,0.0,meteohub,2013-09-06 09:14:00,
2013-09-06 04:19:00,68.2,64.2,29.99,NNW,348,0.0,2.0,87,0.00,,,0.00,0.0,meteohub,2013-09-06 09:19:00,
2013-09-06 04:24:00,68.2,64.4,29.99,North,5,0.0,2.0,88,0.00,,,0.00,0.0,meteohub,2013-09-06 09:24:00,
2013-09-06 04:29:00,68.2,64.4,29.99,ENE,68,0.0,2.0,88,0.00,,,0.00,0.0,meteohub,2013-09-06 09:29:00,
2013-09-06 04:34:00,68.2,64.2,29.99,North,5,0.0,2.0,87,0.00,,,0.00,0.0,meteohub,2013-09-06 09:34:00,
2013-09-06 04:39:00,68.2,64.2,29.99,NE,47,0.0,2.0,87,0.00,,,0.00,0.0,meteohub,2013-09-06 09:39:00,
2013-09-06 04:44:00,68.0,64.0,29.99,WSW,238,0.0,4.0,87,0.00,,,0.00,0.0,meteohub,2013-09-06 09:44:00,
2013-09-06 04:49:00,68.0,64.4,29.99,North,5,0.0,4.0,88,0.00,,,0.00,0.0,meteohub,2013-09-06 09:49:00,
2013-09-06 04:54:00,68.2,64.4,29.99,ENE,59,0.0,4.0,88,0.00,,,0.00,0.0,meteohub,2013-09-06 09:54:00,
2013-09-06 04:59:00,68.0,64.0,29.99,NNW,332,0.0,3.0,87,0.00,,,0.00,0.0,meteohub,2013-09-06 09:59:00,
2013-09-06 05:04:00,68.2,64.2,29.99,NNW,345,0.0,3.0,87,0.00,,,0.00,0.0,meteohub,2013-09-06 10:04:00,
2013-09-06 05:09:00,68.2,64.2,29.99,NW,310,0.0,3.0,87,0.00,,,0.00,0.0,meteohub,2013-09-06 10:09:00,
2013-09-06 05:14:00,68.0,64.4,29.99,North,9,0.0,4.0,88,0.00,,,0.00,0.0,meteohub,2013-09-06 10:14:00,
2013-09-06 05:19:00,67.6,64.0,29.99,WNW,296,0.0,4.0,88,0.00,,,0.00,0.0,meteohub,2013-09-06 10:19:00,
2013-09-06 05:24:00,67.5,63.9,29.99,WNW,296,0.0,4.0,88,0.00,,,0.00,0.0,meteohub,2013-09-06 10:24:00,
2013-09-06 05:29:00,67.3,63.7,29.99,ENE,74,0.0,2.0,88,0.00,,,0.00,0.0,meteohub,2013-09-06 10:29:00,
2013-09-06 05:34:00,66.9,63.5,29.99,ENE,74,0.0,3.0,89,0.00,,,0.00,0.0,meteohub,2013-09-06 10:34:00,
2013-09-06 05:39:00,66.7,63.7,29.99,ENE,74,0.0,3.0,90,0.00,,,0.00,0.0,meteohub,2013-09-06 10:39:00,
2013-09-06 05:44:00,66.7,63.7,29.98,WNW,299,0.0,3.0,90,0.00,,,0.00,0.0,meteohub,2013-09-06 10:44:00,
2013-09-06 05:49:00,66.6,63.5,29.98,WNW,299,0.0,1.0,90,0.00,,,0.00,0.0,meteohub,2013-09-06 10:49:00,
2013-09-06 05:54:00,66.6,63.9,29.98,SW,230,0.0,1.0,91,0.00,,,0.00,0.0,meteohub,2013-09-06 10:54:00,
2013-09-06 05:59:00,66.4,63.7,29.98,SW,230,0.0,4.0,91,0.00,,,0.00,0.0,meteohub,2013-09-06 10:59:00,
2013-09-06 06:04:00,66.4,63.7,29.98,North,355,0.0,4.0,91,0.00,,,0.00,0.0,meteohub,2013-09-06 11:04:00,
2013-09-06 06:09:00,66.4,63.7,29.98,NNW,337,0.0,4.0,91,0.00,,,0.00,0.0,meteohub,2013-09-06 11:09:00,
2013-09-06 06:14:00,66.4,64.0,29.97,NNW,337,0.0,2.0,92,0.00,,,0.00,0.0,meteohub,2013-09-06 11:14:00,
2013-09-06 06:19:00,66.4,64.0,29.98,NW,313,0.0,2.0,92,0.00,,,0.00,0.0,meteohub,2013-09-06 11:19:00,
2013-09-06 06:24:00,66.4,64.0,29.98,SW,225,1.0,2.0,92,0.00,,,0.00,0.0,meteohub,2013-09-06 11:24:00,
2013-09-06 06:29:00,66.6,63.9,29.98,NE,45,0.0,3.0,91,0.00,,,0.00,0.0,meteohub,2013-09-06 11:29:00,
2013-09-06 06:34:00,66.7,63.7,29.98,NNE,19,0.0,3.0,90,0.00,,,0.00,0.0,meteohub,2013-09-06 11:34:00,
2013-09-06 06:39:00,66.7,63.7,29.98,NW,307,0.0,4.0,90,0.00,,,0.00,0.0,meteohub,2013-09-06 11:39:00,
2013-09-06 06:44:00,66.9,63.9,29.98,NNW,336,0.0,4.0,90,0.00,,,0.00,0.0,meteohub,2013-09-06 11:44:00,
2013-09-06 06:49:00,66.9,63.9,29.97,NNW,336,0.0,4.0,90,0.00,,,0.00,0.0,meteohub,2013-09-06 11:49:00,
2013-09-06 06:55:00,66.9,63.9,29.97,SSE,161,0.0,2.0,90,0.00,,,0.00,0.0,meteohub,2013-09-06 11:55:00,
2013-09-06 07:00:00,66.9,63.9,29.97,West,265,0.0,3.0,90,0.00,,,0.00,5.0,meteohub,2013-09-06 12:00:00,
2013-09-06 07:05:00,66.9,63.9,29.97,ENE,78,0.0,5.0,90,0.00,,,0.00,7.0,meteohub,2013-09-06 12:05:00,
2013-09-06 07:10:00,67.1,64.0,29.96,WNW,298,0.0,5.0,90,0.00,,,0.00,9.0,meteohub,2013-09-06 12:10:00,
2013-09-06 07:15:00,67.3,63.9,29.96,NNE,14,0.0,5.0,89,0.00,,,0.00,11.0,meteohub,2013-09-06 12:15:00,
2013-09-06 07:20:00,67.3,63.9,29.96,NW,321,0.0,5.0,89,0.00,,,0.00,14.0,meteohub,2013-09-06 12:20:00,
2013-09-06 07:25:00,67.3,63.9,29.96,East,98,0.0,6.0,89,0.00,,,0.00,14.0,meteohub,2013-09-06 12:25:00,
2013-09-06 07:30:00,67.3,63.9,29.96,WNW,303,1.0,6.0,89,0.00,,,0.00,18.0,meteohub,2013-09-06 12:30:00,
2013-09-06 07:35:00,67.5,64.0,29.95,NNW,348,0.0,6.0,89,0.00,,,0.00,19.0,meteohub,2013-09-06 12:35:00,
2013-09-06 07:40:00,67.5,64.0,29.95,West,279,1.0,4.0,89,0.00,,,0.00,21.0,meteohub,2013-09-06 12:40:00,
2013-09-06 07:45:00,67.5,64.0,29.95,NNE,32,0.0,4.0,89,0.00,,,0.00,23.0,meteohub,2013-09-06 12:45:00,
2013-09-06 07:50:00,67.5,64.0,29.95,NW,309,0.0,4.0,89,0.00,,,0.00,25.0,meteohub,2013-09-06 12:50:00,
2013-09-06 07:55:00,67.6,64.2,29.95,NNW,344,0.0,3.0,89,0.00,,,0.00,28.0,meteohub,2013-09-06 12:55:00,
2013-09-06 08:00:00,67.6,64.2,29.94,WSW,254,0.0,4.0,89,0.00,,,0.00,30.0,meteohub,2013-09-06 13:00:00,
2013-09-06 08:05:00,67.8,64.4,29.94,NW,314,0.0,4.0,89,0.00,,,0.00,33.0,meteohub,2013-09-06 13:05:00,
2013-09-06 08:10:00,67.8,64.4,29.94,WNW,296,0.0,4.0,89,0.00,,,0.00,35.0,meteohub,2013-09-06 13:10:00,
2013-09-06 08:15:00,68.4,64.6,29.94,NNW,348,0.0,4.0,88,0.00,,,0.00,37.0,meteohub,2013-09-06 13:15:00,
2013-09-06 08:20:00,68.5,64.8,29.94,NNE,13,0.0,4.0,88,0.00,,,0.00,39.0,meteohub,2013-09-06 13:20:00,
2013-09-06 08:25:00,68.9,64.9,29.94,ESE,123,0.0,5.0,87,0.00,,,0.00,40.0,meteohub,2013-09-06 13:25:00,
2013-09-06 08:30:00,68.9,64.9,29.94,SW,236,0.0,5.0,87,0.00,,,0.00,42.0,meteohub,2013-09-06 13:30:00,
2013-09-06 08:35:00,69.1,65.1,29.93,NNE,32,0.0,5.0,87,0.00,,,0.00,44.0,meteohub,2013-09-06 13:35:00,
2013-09-06 08:40:00,69.4,65.1,29.93,SSE,163,0.0,3.0,86,0.00,,,0.00,46.0,meteohub,2013-09-06 13:40:00,
2013-09-06 08:45:00,69.6,65.3,29.92,NNW,343,0.0,3.0,86,0.00,,,0.00,47.0,meteohub,2013-09-06 13:45:00,
2013-09-06 08:50:00,69.8,65.1,29.92,WSW,257,1.0,5.0,85,0.00,,,0.00,49.0,meteohub,2013-09-06 13:50:00,
2013-09-06 08:55:00,70.0,65.3,29.92,West,262,0.0,5.0,85,0.00,,,0.00,51.0,meteohub,2013-09-06 13:55:00,
2013-09-06 09:00:00,70.5,65.8,29.92,WNW,296,0.0,5.0,85,0.00,,,0.00,53.0,meteohub,2013-09-06 14:00:00,
2013-09-06 09:05:00,70.5,65.1,29.92,NNW,329,1.0,3.0,83,0.00,,,0.00,53.0,meteohub,2013-09-06 14:05:00,
2013-09-06 09:10:00,70.9,65.8,29.92,West,279,0.0,3.0,84,0.00,,,0.00,54.0,meteohub,2013-09-06 14:10:00,
2013-09-06 09:15:00,71.2,65.8,29.92,South,189,0.0,4.0,83,0.00,,,0.00,56.0,meteohub,2013-09-06 14:15:00,
2013-09-06 09:20:00,71.2,65.8,29.93,WNW,293,0.0,4.0,83,0.00,,,0.00,60.0,meteohub,2013-09-06 14:20:00,
2013-09-06 09:25:00,71.6,66.6,29.92,NNE,33,0.0,3.0,84,0.00,,,0.00,62.0,meteohub,2013-09-06 14:25:00,
2013-09-06 09:30:00,72.0,66.6,29.92,West,262,0.0,4.0,83,0.00,,,0.00,69.0,meteohub,2013-09-06 14:30:00,
2013-09-06 09:35:00,72.3,66.9,29.93,North,355,0.0,4.0,83,0.00,,,0.00,65.0,meteohub,2013-09-06 14:35:00,
2013-09-06 09:40:00,72.7,66.9,29.92,NW,305,1.0,5.0,82,0.00,,,0.00,69.0,meteohub,2013-09-06 14:40:00,
2013-09-06 09:45:00,72.9,67.5,29.92,ENE,73,0.0,5.0,83,0.00,,,0.00,70.0,meteohub,2013-09-06 14:45:00,
2013-09-06 09:50:00,72.7,67.3,29.92,NW,315,1.0,5.0,83,0.00,,,0.00,70.0,meteohub,2013-09-06 14:50:00,
2013-09-06 09:56:00,73.6,67.5,29.92,WSW,252,2.0,2.0,81,0.00,,,0.00,72.0,meteohub,2013-09-06 14:56:00,
2013-09-06 10:01:00,73.9,67.8,29.92,NW,321,0.0,4.0,81,0.00,,,0.00,88.0,meteohub,2013-09-06 15:01:00,
2013-09-06 10:06:00,74.5,68.2,29.92,WNW,284,0.0,4.0,81,0.00,,,0.00,360.0,meteohub,2013-09-06 15:06:00,
2013-09-06 10:11:00,74.8,67.8,29.92,West,267,0.0,4.0,79,0.00,,,0.00,392.0,meteohub,2013-09-06 15:11:00,
2013-09-06 10:16:00,75.0,68.4,29.92,WNW,286,2.0,3.0,80,0.00,,,0.00,336.0,meteohub,2013-09-06 15:16:00,
2013-09-06 10:21:00,75.4,68.4,29.92,West,279,1.0,3.0,79,0.00,,,0.00,304.0,meteohub,2013-09-06 15:21:00,
2013-09-06 10:26:00,76.1,68.7,29.91,West,280,0.0,3.0,78,0.00,,,0.00,452.0,meteohub,2013-09-06 15:26:00,
2013-09-06 10:31:00,76.3,69.3,29.91,WNW,299,0.0,6.0,79,0.00,,,0.00,468.0,meteohub,2013-09-06 15:31:00,
2013-09-06 10:36:00,76.6,68.9,29.92,NW,309,0.0,6.0,77,0.00,,,0.00,482.0,meteohub,2013-09-06 15:36:00,
2013-09-06 10:41:00,76.6,69.3,29.92,NW,312,0.0,3.0,78,0.00,,,0.00,496.0,meteohub,2013-09-06 15:41:00,
2013-09-06 10:46:00,77.4,70.0,29.92,ENE,71,0.0,2.0,78,0.00,,,0.00,504.0,meteohub,2013-09-06 15:46:00,
2013-09-06 10:51:00,77.9,69.8,29.92,West,262,1.0,2.0,76,0.00,,,0.00,517.0,meteohub,2013-09-06 15:51:00,
2013-09-06 10:56:00,78.3,70.0,29.92,NNW,332,0.0,2.0,76,0.00,,,0.00,522.0,meteohub,2013-09-06 15:56:00,
2013-09-06 11:01:00,78.8,70.5,29.92,WNW,286,3.0,3.0,76,0.00,,,0.00,531.0,meteohub,2013-09-06 16:01:00,
2013-09-06 11:06:00,79.0,70.7,29.91,ESE,103,0.0,3.0,76,0.00,,,0.00,547.0,meteohub,2013-09-06 16:06:00,
2013-09-06 11:11:00,79.2,69.8,29.91,NW,324,0.0,3.0,73,0.00,,,0.00,557.0,meteohub,2013-09-06 16:11:00,
2013-09-06 11:16:00,79.2,70.2,29.91,NW,317,1.0,5.0,74,0.00,,,0.00,568.0,meteohub,2013-09-06 16:16:00,
2013-09-06 11:21:00,79.9,70.0,29.91,North,9,1.0,5.0,72,0.00,,,0.00,578.0,meteohub,2013-09-06 16:21:00,
2013-09-06 11:26:00,80.4,70.2,29.91,NW,311,0.0,5.0,71,0.00,,,0.00,587.0,meteohub,2013-09-06 16:26:00,
2013-09-06 11:31:00,80.4,70.5,29.91,West,261,0.0,5.0,72,0.00,,,0.00,589.0,meteohub,2013-09-06 16:31:00,
2013-09-06 11:36:00,80.8,70.9,29.91,NNW,342,0.0,6.0,72,0.00,,,0.00,603.0,meteohub,2013-09-06 16:36:00,
2013-09-06 11:41:00,80.8,70.9,29.90,NNW,332,2.0,6.0,72,0.00,,,0.00,608.0,meteohub,2013-09-06 16:41:00,
2013-09-06 11:46:00,81.7,72.5,29.90,NNW,336,0.0,6.0,74,0.00,,,0.00,613.0,meteohub,2013-09-06 16:46:00,
2013-09-06 11:51:00,81.7,71.8,29.90,NNW,338,0.0,3.0,72,0.00,,,0.00,622.0,meteohub,2013-09-06 16:51:00,
2013-09-06 11:56:00,81.7,72.1,29.90,North,11,0.0,3.0,73,0.00,,,0.00,629.0,meteohub,2013-09-06 16:56:00,
2013-09-06 12:01:00,82.2,71.4,29.89,SSW,198,0.0,7.0,70,0.00,,,0.00,635.0,meteohub,2013-09-06 17:01:00,
2013-09-06 12:06:00,82.8,71.6,29.89,NE,51,0.0,7.0,69,0.00,,,0.00,642.0,meteohub,2013-09-06 17:06:00,
2013-09-06 12:11:00,82.6,72.1,29.89,WNW,296,0.0,5.0,71,0.00,,,0.00,645.0,meteohub,2013-09-06 17:11:00,
2013-09-06 12:16:00,82.8,72.9,29.89,NW,326,0.0,5.0,72,0.00,,,0.00,652.0,meteohub,2013-09-06 17:16:00,
2013-09-06 12:21:00,83.3,73.4,29.88,NE,46,2.0,4.0,72,0.00,,,0.00,657.0,meteohub,2013-09-06 17:21:00,
2013-09-06 12:26:00,83.7,74.1,29.88,NE,55,1.0,4.0,73,0.00,,,0.00,666.0,meteohub,2013-09-06 17:26:00,
2013-09-06 12:31:00,83.8,72.5,29.88,WNW,285,0.0,4.0,69,0.00,,,0.00,668.0,meteohub,2013-09-06 17:31:00,
2013-09-06 12:37:00,84.4,72.1,29.88,WNW,291,2.0,3.0,67,0.00,,,0.00,671.0,meteohub,2013-09-06 17:37:00,
2013-09-06 12:42:00,84.6,72.0,29.88,NW,317,1.0,5.0,66,0.00,,,0.00,677.0,meteohub,2013-09-06 17:42:00,
2013-09-06 12:47:00,84.6,72.3,29.88,WNW,302,0.0,5.0,67,0.00,,,0.00,682.0,meteohub,2013-09-06 17:47:00,
2013-09-06 12:52:00,84.6,71.1,29.87,WNW,296,1.0,5.0,64,0.00,,,0.00,686.0,meteohub,2013-09-06 17:52:00,
2013-09-06 12:57:00,84.7,73.4,29.87,SSE,157,0.0,5.0,69,0.00,,,0.00,687.0,meteohub,2013-09-06 17:57:00,
2013-09-06 13:02:00,85.5,72.9,29.86,West,262,2.0,5.0,66,0.00,,,0.00,691.0,meteohub,2013-09-06 18:02:00,
2013-09-06 13:07:00,85.6,75.2,29.86,WNW,292,0.0,5.0,71,0.00,,,0.00,693.0,meteohub,2013-09-06 18:07:00,
2013-09-06 13:12:00,85.8,74.5,29.86,WNW,292,0.0,4.0,69,0.00,,,0.00,693.0,meteohub,2013-09-06 18:12:00,
2013-09-06 13:17:00,86.0,72.3,29.86,North,11,0.0,4.0,64,0.00,,,0.00,696.0,meteohub,2013-09-06 18:17:00,
2013-09-06 13:22:00,86.9,73.8,29.86,NW,305,1.0,4.0,65,0.00,,,0.00,694.0,meteohub,2013-09-06 18:22:00,
2013-09-06 13:27:00,87.4,74.3,29.86,NNE,19,1.0,4.0,65,0.00,,,0.00,696.0,meteohub,2013-09-06 18:27:00,
2013-09-06 13:32:00,86.7,76.1,29.85,ESE,119,0.0,4.0,71,0.00,,,0.00,698.0,meteohub,2013-09-06 18:32:00,
2013-09-06 13:37:00,86.4,74.5,29.86,West,270,1.0,4.0,68,0.00,,,0.00,698.0,meteohub,2013-09-06 18:37:00,
2013-09-06 13:42:00,86.7,73.9,29.86,West,270,0.0,3.0,66,0.00,,,0.00,693.0,meteohub,2013-09-06 18:42:00,
2013-09-06 13:47:00,86.7,73.9,29.85,WNW,287,0.0,3.0,66,0.00,,,0.00,691.0,meteohub,2013-09-06 18:47:00,
2013-09-06 13:52:00,87.1,72.5,29.85,North,0,2.0,3.0,62,0.00,,,0.00,696.0,meteohub,2013-09-06 18:52:00,
2013-09-06 13:57:00,87.4,72.9,29.85,NW,321,1.0,3.0,62,0.00,,,0.00,694.0,meteohub,2013-09-06 18:57:00,
2013-09-06 14:02:00,87.4,74.3,29.85,NW,319,0.0,3.0,65,0.00,,,0.00,687.0,meteohub,2013-09-06 19:02:00,
2013-09-06 14:07:00,87.8,74.1,29.85,WNW,286,0.0,3.0,64,0.00,,,0.00,698.0,meteohub,2013-09-06 19:07:00,
2013-09-06 14:12:00,88.0,73.4,29.85,West,271,0.0,3.0,62,0.00,,,0.00,434.0,meteohub,2013-09-06 19:12:00,
2013-09-06 14:17:00,86.4,74.5,29.85,West,271,0.0,3.0,68,0.00,,,0.00,206.0,meteohub,2013-09-06 19:17:00,
2013-09-06 14:22:00,85.6,74.7,29.85,West,270,0.0,2.0,70,0.00,,,0.00,355.0,meteohub,2013-09-06 19:22:00,
2013-09-06 14:27:00,85.6,75.2,29.85,NW,304,0.0,2.0,71,0.00,,,0.00,366.0,meteohub,2013-09-06 19:27:00,
2013-09-06 14:32:00,86.0,77.2,29.85,NW,304,0.0,1.0,75,0.00,,,0.00,408.0,meteohub,2013-09-06 19:32:00,
2013-09-06 14:37:00,87.6,75.7,29.84,NW,324,0.0,2.0,68,0.00,,,0.00,824.0,meteohub,2013-09-06 19:37:00,
2013-09-06 14:42:00,88.5,77.0,29.84,WNW,299,1.0,2.0,69,0.00,,,0.00,689.0,meteohub,2013-09-06 19:42:00,
2013-09-06 14:47:00,88.7,75.9,29.83,WSW,251,0.0,3.0,66,0.00,,,0.00,450.0,meteohub,2013-09-06 19:47:00,
2013-09-06 14:52:00,87.6,75.4,29.83,NW,324,0.0,3.0,67,0.00,,,0.00,399.0,meteohub,2013-09-06 19:52:00,
2013-09-06 14:57:00,87.3,75.0,29.83,NW,324,0.0,3.0,67,0.00,,,0.00,388.0,meteohub,2013-09-06 19:57:00,
2013-09-06 15:02:00,88.0,75.2,29.83,NW,317,0.0,3.0,66,0.00,,,0.00,656.0,meteohub,2013-09-06 20:02:00,
2013-09-06 15:07:00,88.3,73.6,29.83,NW,313,0.0,2.0,62,0.00,,,0.00,633.0,meteohub,2013-09-06 20:07:00,
2013-09-06 15:12:00,87.8,74.1,29.83,NW,313,0.0,2.0,64,0.00,,,0.00,626.0,meteohub,2013-09-06 20:12:00,
2013-09-06 15:17:00,87.8,74.5,29.83,WNW,300,0.0,2.0,65,0.00,,,0.00,406.0,meteohub,2013-09-06 20:17:00,
2013-09-06 15:22:00,88.2,73.9,29.83,NW,310,0.0,2.0,63,0.00,,,0.00,610.0,meteohub,2013-09-06 20:22:00,
2013-09-06 15:27:00,89.1,72.9,29.83,West,269,1.0,2.0,59,0.00,,,0.00,543.0,meteohub,2013-09-06 20:27:00,
2013-09-06 15:32:00,88.2,74.5,29.82,NNW,336,0.0,4.0,64,0.00,,,0.00,192.0,meteohub,2013-09-06 20:32:00,
2013-09-06 15:37:00,88.3,71.6,29.82,West,260,0.0,4.0,58,0.00,,,0.00,504.0,meteohub,2013-09-06 20:37:00,
2013-09-06 15:42:00,88.2,73.9,29.82,West,260,0.0,4.0,63,0.00,,,0.00,408.0,meteohub,2013-09-06 20:42:00,
2013-09-06 15:47:00,87.6,72.5,29.82,WSW,254,1.0,2.0,61,0.00,,,0.00,364.0,meteohub,2013-09-06 20:47:00,
2013-09-06 15:52:00,87.4,70.9,29.82,WNW,284,0.0,2.0,58,0.00,,,0.00,308.0,meteohub,2013-09-06 20:52:00,
2013-09-06 15:57:00,87.4,73.8,29.82,WNW,284,0.0,5.0,64,0.00,,,0.00,255.0,meteohub,2013-09-06 20:57:00,
2013-09-06 16:02:00,87.4,73.2,29.81,WNW,284,0.0,5.0,63,0.00,,,0.00,121.0,meteohub,2013-09-06 21:02:00,
2013-09-06 16:07:00,87.4,73.2,29.81,WNW,284,0.0,5.0,63,0.00,,,0.00,156.0,meteohub,2013-09-06 21:07:00,
2013-09-06 16:12:00,87.1,72.9,29.81,WNW,283,1.0,2.0,63,0.00,,,0.00,93.0,meteohub,2013-09-06 21:12:00,
2013-09-06 16:17:00,86.7,73.9,29.81,WSW,246,0.0,4.0,66,0.00,,,0.00,77.0,meteohub,2013-09-06 21:17:00,
2013-09-06 16:22:00,86.5,73.4,29.81,WSW,246,0.0,4.0,65,0.00,,,0.00,76.0,meteohub,2013-09-06 21:22:00,
2013-09-06 16:27:00,86.7,73.0,29.81,WSW,246,0.0,4.0,64,0.00,,,0.00,72.0,meteohub,2013-09-06 21:27:00,
2013-09-06 16:32:00,86.5,72.9,29.81,SSW,209,0.0,1.0,64,0.00,,,0.00,113.0,meteohub,2013-09-06 21:32:00,
2013-09-06 16:37:00,86.5,73.8,29.80,SSW,209,0.0,1.0,66,0.00,,,0.00,93.0,meteohub,2013-09-06 21:37:00,
2013-09-06 16:42:00,86.4,74.1,29.80,SSW,209,0.0,1.0,67,0.00,,,0.00,141.0,meteohub,2013-09-06 21:42:00,
2013-09-06 16:47:00,86.0,75.0,29.81,SSW,209,0.0,1.0,70,0.00,,,0.00,72.0,meteohub,2013-09-06 21:47:00,
2013-09-06 16:52:00,85.8,74.5,29.80,SSW,209,0.0,1.0,69,0.00,,,0.00,74.0,meteohub,2013-09-06 21:52:00,
2013-09-06 16:57:00,86.4,74.1,29.80,SSW,209,0.0,1.0,67,0.00,,,0.00,69.0,meteohub,2013-09-06 21:57:00,
2013-09-06 17:02:00,86.4,72.3,29.80,SSW,209,0.0,1.0,63,0.00,,,0.00,63.0,meteohub,2013-09-06 22:02:00,
2013-09-06 17:07:00,86.4,75.0,29.80,SSW,209,0.0,0.0,69,0.00,,,0.00,109.0,meteohub,2013-09-06 22:07:00,
2013-09-06 17:12:00,86.2,73.4,29.80,SSW,209,0.0,0.0,66,0.00,,,0.00,79.0,meteohub,2013-09-06 22:12:00,
2013-09-06 17:17:00,85.8,73.9,29.80,SSW,209,0.0,1.0,68,0.00,,,0.00,91.0,meteohub,2013-09-06 22:17:00,
2013-09-06 17:22:00,85.6,75.2,29.80,SSW,209,0.0,1.0,71,0.00,,,0.00,167.0,meteohub,2013-09-06 22:22:00,
2013-09-06 17:27:00,85.5,73.8,29.80,SSE,161,0.0,1.0,68,0.00,,,0.00,90.0,meteohub,2013-09-06 22:27:00,
2013-09-06 17:32:00,85.3,73.9,29.80,SSE,161,0.0,2.0,69,0.00,,,0.00,72.0,meteohub,2013-09-06 22:32:00,
2013-09-06 17:37:00,85.1,72.9,29.80,SSE,161,0.0,2.0,67,0.00,,,0.00,51.0,meteohub,2013-09-06 22:37:00,
2013-09-06 17:42:00,84.7,72.5,29.79,SSE,161,0.0,0.0,67,0.00,,,0.00,77.0,meteohub,2013-09-06 22:42:00,
2013-09-06 17:47:00,84.2,72.9,29.79,SSE,161,0.0,0.0,69,0.00,,,0.00,155.0,meteohub,2013-09-06 22:47:00,
2013-09-06 17:52:00,83.8,73.0,29.80,SSE,161,0.0,0.0,70,0.00,,,0.00,128.0,meteohub,2013-09-06 22:52:00,
2013-09-06 17:57:00,84.4,73.0,29.80,SSE,161,0.0,0.0,69,0.00,,,0.00,79.0,meteohub,2013-09-06 22:57:00,
2013-09-06 18:02:00,84.4,73.0,29.80,SSE,161,0.0,0.0,69,0.00,,,0.00,47.0,meteohub,2013-09-06 23:02:00,
2013-09-06 18:07:00,84.2,73.8,29.80,SSE,161,0.0,0.0,71,0.00,,,0.00,69.0,meteohub,2013-09-06 23:07:00,
2013-09-06 18:12:00,83.7,72.3,29.80,SSE,161,0.0,0.0,69,0.00,,,0.00,93.0,meteohub,2013-09-06 23:12:00,
2013-09-06 18:17:00,83.5,73.0,29.80,SSE,161,0.0,0.0,71,0.00,,,0.00,76.0,meteohub,2013-09-06 23:17:00,
2013-09-06 18:21:00,83.5,73.6,29.80,SSE,161,0.0,0.0,72,0.00,,,0.00,56.0,meteohub,2013-09-06 23:21:00,
2013-09-06 18:27:00,82.9,73.4,29.80,SSE,161,0.0,0.0,73,0.00,,,0.00,40.0,meteohub,2013-09-06 23:27:00,
2013-09-06 18:32:00,82.8,73.2,29.80,SSE,161,0.0,0.0,73,0.00,,,0.00,25.0,meteohub,2013-09-06 23:32:00,
2013-09-06 18:37:00,82.2,72.7,29.80,SSE,161,0.0,0.0,73,0.00,,,0.00,25.0,meteohub,2013-09-06 23:37:00,
2013-09-06 18:42:00,82.2,73.0,29.80,SSE,161,0.0,0.0,74,0.00,,,0.00,23.0,meteohub,2013-09-06 23:42:00,
2013-09-06 18:47:00,81.9,73.2,29.80,SSE,161,0.0,0.0,75,0.00,,,0.00,21.0,meteohub,2013-09-06 23:47:00,
2013-09-06 18:52:00,81.7,73.4,29.80,SSE,161,0.0,0.0,76,0.00,,,0.00,12.0,meteohub,2013-09-06 23:52:00,
2013-09-06 18:57:00,81.5,73.2,29.79,SSE,161,0.0,0.0,76,0.00,,,0.00,14.0,meteohub,2013-09-06 23:57:00,
2013-09-06 19:02:00,81.5,73.6,29.79,SSE,161,0.0,0.0,77,0.00,,,0.00,19.0,meteohub,2013-09-07 00:02:00,
2013-09-06 19:07:00,81.7,73.4,29.79,SSE,161,0.0,0.0,76,0.00,,,0.00,19.0,meteohub,2013-09-07 00:07:00,
2013-09-06 19:12:00,81.7,73.4,29.79,SSE,161,0.0,0.0,76,0.00,,,0.00,21.0,meteohub,2013-09-07 00:12:00,
2013-09-06 19:17:00,81.5,73.9,29.79,SSE,161,0.0,0.0,78,0.00,,,0.00,18.0,meteohub,2013-09-07 00:17:00,
2013-09-06 19:22:00,81.3,73.4,29.79,SSE,161,0.0,0.0,77,0.00,,,0.00,16.0,meteohub,2013-09-07 00:22:00,
2013-09-06 19:27:00,81.1,73.9,29.79,SSE,161,0.0,0.0,79,0.00,,,0.00,12.0,meteohub,2013-09-07 00:27:00,
2013-09-06 19:32:00,81.0,73.4,29.79,SSE,161,0.0,0.0,78,0.00,,,0.00,9.0,meteohub,2013-09-07 00:32:00,
2013-09-06 19:37:00,81.0,73.8,29.79,SSE,161,0.0,0.0,79,0.00,,,0.00,7.0,meteohub,2013-09-07 00:37:00,
2013-09-06 19:42:00,80.8,73.2,29.80,SSE,161,0.0,0.0,78,0.00,,,0.00,5.0,meteohub,2013-09-07 00:42:00,
2013-09-06 19:47:00,80.4,73.2,29.80,SSE,161,0.0,0.0,79,0.00,,,0.00,0.0,meteohub,2013-09-07 00:47:00,
2013-09-06 19:52:00,80.2,73.0,29.80,SSE,161,0.0,0.0,79,0.00,,,0.00,0.0,meteohub,2013-09-07 00:52:00,
2013-09-06 19:57:00,80.1,73.0,29.80,SSE,161,0.0,0.0,79,0.00,,,0.00,0.0,meteohub,2013-09-07 00:57:00,
2013-09-06 20:02:00,79.7,72.7,29.80,SSE,161,0.0,0.0,79,0.00,,,0.00,0.0,meteohub,2013-09-07 01:02:00,
2013-09-06 20:07:00,79.5,72.5,29.80,SSE,161,0.0,0.0,79,0.00,,,0.00,0.0,meteohub,2013-09-07 01:07:00,
2013-09-06 20:12:00,79.3,72.7,29.80,SSE,161,0.0,0.0,80,0.00,,,0.00,0.0,meteohub,2013-09-07 01:12:00,
2013-09-06 20:17:00,79.2,72.9,29.80,SSE,161,0.0,0.0,81,0.00,,,0.00,0.0,meteohub,2013-09-07 01:17:00,
2013-09-06 20:22:00,79.0,72.7,29.80,SSE,161,0.0,0.0,81,0.00,,,0.00,0.0,meteohub,2013-09-07 01:22:00,
2013-09-06 20:27:00,79.0,72.7,29.80,SSE,161,0.0,0.0,81,0.00,,,0.00,0.0,meteohub,2013-09-07 01:27:00,
2013-09-06 20:32:00,78.6,72.7,29.80,SSE,161,0.0,0.0,82,0.00,,,0.00,0.0,meteohub,2013-09-07 01:32:00,
2013-09-06 20:37:00,78.3,72.3,29.81,SSE,161,0.0,0.0,82,0.00,,,0.00,0.0,meteohub,2013-09-07 01:37:00,
2013-09-06 20:42:00,78.1,72.5,29.81,SSE,161,0.0,0.0,83,0.00,,,0.00,0.0,meteohub,2013-09-07 01:42:00,
2013-09-06 20:47:00,78.1,72.9,29.81,SSE,161,0.0,0.0,84,0.00,,,0.00,0.0,meteohub,2013-09-07 01:47:00,
2013-09-06 20:52:00,77.9,72.7,29.81,SSE,161,0.0,0.0,84,0.00,,,0.00,0.0,meteohub,2013-09-07 01:52:00,
2013-09-06 20:57:00,77.7,72.5,29.81,SSE,161,0.0,0.0,84,0.00,,,0.00,0.0,meteohub,2013-09-07 01:57:00,
2013-09-06 21:02:00,77.5,72.7,29.81,SSE,161,0.0,0.0,85,0.00,,,0.00,0.0,meteohub,2013-09-07 02:02:00,
2013-09-06 21:07:00,77.4,72.9,29.81,SSE,161,0.0,0.0,86,0.00,,,0.00,0.0,meteohub,2013-09-07 02:07:00,
2013-09-06 21:12:00,77.2,73.0,29.81,SSE,161,0.0,0.0,87,0.00,,,0.00,0.0,meteohub,2013-09-07 02:12:00,
2013-09-06 21:17:00,76.8,72.7,29.81,SSE,161,0.0,0.0,87,0.00,,,0.00,0.0,meteohub,2013-09-07 02:17:00,
2013-09-06 21:22:00,76.6,72.5,29.81,SSE,161,0.0,0.0,87,0.00,,,0.00,0.0,meteohub,2013-09-07 02:22:00,
2013-09-06 21:27:00,76.5,72.3,29.81,SSE,161,0.0,0.0,87,0.00,,,0.00,0.0,meteohub,2013-09-07 02:27:00,
2013-09-06 21:32:00,76.5,72.7,29.81,SSE,161,0.0,0.0,88,0.00,,,0.00,0.0,meteohub,2013-09-07 02:32:00,
2013-09-06 21:37:00,76.3,72.5,29.81,SSE,161,0.0,0.0,88,0.00,,,0.00,0.0,meteohub,2013-09-07 02:37:00,
2013-09-06 21:42:00,76.3,72.5,29.81,SSE,161,0.0,0.0,88,0.00,,,0.00,0.0,meteohub,2013-09-07 02:42:00,
2013-09-06 21:47:00,75.9,72.5,29.81,SSE,161,0.0,0.0,89,0.00,,,0.00,0.0,meteohub,2013-09-07 02:47:00,
2013-09-06 21:52:00,75.9,72.5,29.81,SSE,161,0.0,0.0,89,0.00,,,0.00,0.0,meteohub,2013-09-07 02:52:00,
2013-09-06 21:57:00,75.7,72.7,29.81,SSE,161,0.0,0.0,90,0.00,,,0.00,0.0,meteohub,2013-09-07 02:57:00,
2013-09-06 22:02:00,75.6,72.5,29.81,SSE,161,0.0,0.0,90,0.00,,,0.00,0.0,meteohub,2013-09-07 03:02:00,
2013-09-06 22:07:00,75.4,72.3,29.81,SSE,161,0.0,0.0,90,0.00,,,0.00,0.0,meteohub,2013-09-07 03:07:00,
2013-09-06 22:12:00,75.2,72.3,29.81,SSE,161,0.0,0.0,91,0.00,,,0.00,0.0,meteohub,2013-09-07 03:12:00,
2013-09-06 22:17:00,75.0,72.1,29.81,SSE,161,0.0,0.0,91,0.00,,,0.00,0.0,meteohub,2013-09-07 03:17:00,
2013-09-06 22:22:00,74.8,72.3,29.81,SSE,161,0.0,0.0,92,0.00,,,0.00,0.0,meteohub,2013-09-07 03:22:00,
2013-09-06 22:27:00,74.8,72.3,29.81,SSE,161,0.0,0.0,92,0.00,,,0.00,0.0,meteohub,2013-09-07 03:27:00,
2013-09-06 22:32:00,74.7,72.1,29.82,SSE,161,0.0,0.0,92,0.00,,,0.00,0.0,meteohub,2013-09-07 03:32:00,
2013-09-06 22:37:00,74.5,72.3,29.82,SSE,161,0.0,0.0,93,0.00,,,0.00,0.0,meteohub,2013-09-07 03:37:00,
2013-09-06 22:42:00,74.3,72.1,29.82,SSE,161,0.0,0.0,93,0.00,,,0.00,0.0,meteohub,2013-09-07 03:42:00,
2013-09-06 22:47:00,73.9,71.4,29.83,SSE,161,0.0,0.0,92,0.00,,,0.00,0.0,meteohub,2013-09-07 03:47:00,
2013-09-06 22:52:00,73.6,71.4,29.82,SSE,161,0.0,0.0,93,0.00,,,0.00,0.0,meteohub,2013-09-07 03:52:00,
2013-09-06 22:57:00,73.6,71.8,29.83,SSE,161,0.0,0.0,94,0.00,,,0.00,0.0,meteohub,2013-09-07 03:57:00,
2013-09-06 23:01:00,73.6,71.8,29.83,SSE,161,0.0,0.0,94,0.00,,,0.00,0.0,meteohub,2013-09-07 04:01:00,
2013-09-06 23:02:00,73.6,71.8,29.83,SSE,161,0.0,0.0,94,0.00,,,0.00,0.0,meteohub,2013-09-07 04:02:00,
2013-09-06 23:03:00,73.6,72.1,29.83,SSE,161,0.0,0.0,95,0.00,,,0.00,0.0,meteohub,2013-09-07 04:03:00,
2013-09-06 23:08:00,73.8,72.3,29.83,SSE,161,0.0,0.0,95,0.00,,,0.00,0.0,meteohub,2013-09-07 04:08:00,
2013-09-06 23:13:00,73.9,72.5,29.82,SSE,161,0.0,0.0,95,0.00,,,0.00,0.0,meteohub,2013-09-07 04:13:00,
2013-09-06 23:18:00,73.8,72.3,29.82,SSE,161,0.0,0.0,95,0.00,,,0.00,0.0,meteohub,2013-09-07 04:18:00,
2013-09-06 23:23:00,73.2,71.1,29.83,SSE,161,0.0,0.0,93,0.00,,,0.00,0.0,meteohub,2013-09-07 04:23:00,
2013-09-06 23:28:00,72.9,71.1,29.83,SSE,161,0.0,0.0,94,0.00,,,0.00,0.0,meteohub,2013-09-07 04:28:00,
2013-09-06 23:33:00,72.9,71.1,29.83,SSE,161,0.0,0.0,94,0.00,,,0.00,0.0,meteohub,2013-09-07 04:33:00,
2013-09-06 23:38:00,72.9,71.4,29.83,SSE,161,0.0,0.0,95,0.00,,,0.00,0.0,meteohub,2013-09-07 04:38:00,
2013-09-06 23:43:00,73.0,71.6,29.83,SSE,161,0.0,0.0,95,0.00,,,0.00,0.0,meteohub,2013-09-07 04:43:00,
2013-09-06 23:48:00,73.0,71.8,29.83,SSE,161,0.0,0.0,96,0.00,,,0.00,0.0,meteohub,2013-09-07 04:48:00,
2013-09-06 23:53:00,72.9,71.4,29.83,SSE,161,0.0,0.0,95,0.00,,,0.00,0.0,meteohub,2013-09-07 04:53:00,
2013-09-06 23:58:00,72.9,71.6,29.83,SSE,161,0.0,0.0,96,0.00,,,0.00,0.0,meteohub,2013-09-07 04:58:00,